Regional Weather Roundup
Issued by NWS State College, PA

Home | Current Version | Previous Version | Text Only | Print | Product List | Glossary On
Versions: 1 2 3 4 5 6 7 8 9 10 11 12 13 14 15 16 17 18 19 20 21 22 23 24 25 26 27 28 29 30 31 32 33 34 35 36 37 38 39 40 41 42 43 44 45 46 47 48 49 50
000
ASUS41 KCTP 240503
RWRCTP

REGIONAL WEATHER ROUNDUP
NATIONAL WEATHER SERVICE STATE COLLEGE PA
100 AM EDT WED MAY 24 2017

Note: "fair" indicates few or no clouds below 12,000 feet with no
significant weather and/or obstructions to visibility.

* = STATION THAT DOES NOT REPORT PRECIPITATION /E.G. RAIN...SNOW...ETC/
    THUNDER OR FOG.

PAZ002>004-007>009-013>016-020>023-029>032-240600-
WESTERN PENNSYLVANIA

CITY           SKY/WX    TMP DP  RH WIND       PRES   REMARKS
ERIE           CLOUDY    60  46  59 S5        29.71F
MEADVILLE      MOCLDY    59  47  64 VRB3      29.71F
FRANKLIN*      MOCLDY    55  45  67 SE6       29.73F
NEW CASTLE     FAIR      59  51  75 SE5       29.71F
BEAVER COUNTY  NOT AVBL
BUTLER*        CLOUDY    59  50  72 E6        29.71F
PITTSBURGH INT CLOUDY    61  54  77 S6        29.70F
PITTSBURGH     CLOUDY    59  50  72 SE3       29.70F
INDIANA*       NOT AVBL
LATROBE        CLOUDY    59  52  77 SE5       29.72F
WASHINGTON CO* CLOUDY    57  54  88 CALM      29.72F
$$

PAZ004>006-010>012-017>019-024>028-033>037-041-042-045-046-049>053-240600-
CENTRAL PENNSYLVANIA

CITY           SKY/WX    TMP DP  RH WIND       PRES   REMARKS
BRADFORD       CLOUDY    53  45  74 E3        29.76F
DUBOIS         CLOUDY    55  45  68 SE8       29.74F
CLEARFIELD     CLOUDY    57  48  72 CALM      29.77F
JOHNSTOWN      CLOUDY    54  49  83 SE6       29.75F
ALTOONA        CLOUDY    56  50  80 SE7       29.75F
STATE COLLEGE  CLOUDY    55  48  77 CALM      29.76F
WILLIAMSPORT   CLOUDY    56  50  80 CALM      29.77F
SELINSGROVE    CLOUDY    53  52  96 CALM      29.77F
FT INDIANTOWN  CLOUDY    57  57 100 CALM      29.76F
CAPITAL CITY   CLOUDY    61  52  72 CALM      29.76F
HARRISBURG     LGT RAIN  60  54  80 CALM      29.75F
YORK           LGT RAIN  57  57 100 CALM      29.76F FOG
$$

PAZ038>040-043-044-047-048-054-055-060>062-067>071-240600-
EASTERN PENNSYLVANIA

CITY           SKY/WX    TMP DP  RH WIND       PRES   REMARKS
SCRANTON       MOCLDY    55  49  80 E7        29.78F
MOUNT POCONO   CLOUDY    49  48  97 CALM      29.78F
ALLENTOWN      CLOUDY    57  52  83 CALM      29.76F
QUAKERTOWN*    MOCLDY    55  55 100 CALM      29.77F
READING        CLOUDY    58  55  90 N5        29.75F
LANCASTER      LGT RAIN  60  57  89 NE3       29.76F
COATESVILLE    CLOUDY    57  54  88 N3        29.76F
POTTSTOWN      CLOUDY    57  53  86 CALM      29.77F
BLUE BELL      CLOUDY    54  54 100 CALM      29.77F
DOYLESTOWN     CLOUDY    57  55  93 CALM      29.75F
WILLOW GROVE   NOT AVBL
NORTH PHILA    CLOUDY    60  51  72 NE5       29.76F
PHILADELPHIA   LGT RAIN  60  49  66 E6        29.75F
$$



USA.gov is the U.S. government's official web portal to all federal, state and local government web resources and services.